When you browse on this site, cookies collect data to enhance your experience and personalize the content and advertising you see.
Visit our Privacy Policy to learn more. By continuing to use the site, you agree to this use of cookies and data.
  • In Hungary
  • List of Countries
  • For 7 days
  • Water Temperature
  • Satellite Maps
  • Weather Map
  • News
  • Weather Widgets
  • user-avatar
    Login

    Hourly Weather Babianka

    Today, 22 May, Wednesday

    Time Temperature Precipitation Wind Pressure Humidity
    00:00 +11°C° 0 mm 6 mps 738 mmHg 86%
    01:00 +11°C° 0 mm 6 mps 738 mmHg 87%
    02:00 +11°C° 0 mm 6 mps 738 mmHg 88%
    03:00 +11°C° 0 mm 6 mps 738 mmHg 89%
    04:00 +13°C° 0 mm 5 mps 738 mmHg 89%
    05:00 +13°C° 0 mm 5 mps 738 mmHg 89%
    06:00 +13°C° 0.2 mm 5 mps 738 mmHg 90%
    07:00 +13°C° 0.2 mm 5 mps 738 mmHg 91%
    08:00 +13°C° 0.2 mm 5 mps 738 mmHg 92%
    09:00 +14°C° 0.2 mm 5 mps 738 mmHg 91%
    10:00 +14°C° 0.2 mm 5 mps 739 mmHg 89%
    11:00 +15°C° 0.2 mm 4 mps 739 mmHg 88%
    12:00 +17°C° 0.1 mm 4 mps 739 mmHg 84%
    13:00 +18°C° 0.1 mm 4 mps 739 mmHg 80%
    14:00 +19°C° 0.1 mm 4 mps 739 mmHg 76%
    15:00 +19°C° 0.5 mm 4 mps 739 mmHg 76%
    16:00 +19°C° 0.5 mm 4 mps 739 mmHg 76%
    17:00 +20°C° 0.5 mm 4 mps 739 mmHg 76%
    18:00 +19°C° 0.1 mm 3 mps 739 mmHg 81%
    19:00 +17°C° 0.1 mm 3 mps 739 mmHg 86%
    20:00 +16°C° 0.1 mm 3 mps 739 mmHg 91%
    21:00 +15°C° 0 mm 2 mps 739 mmHg 92%
    22:00 +15°C° 0 mm 2 mps 739 mmHg 93%
    23:00 +14°C° 0 mm 2 mps 739 mmHg 94%

    Tomorrow, 23 May, Thursday

    Time Temperature Precipitation Wind Pressure Humidity
    00:00 +13°C° 0 mm 2 mps 740 mmHg 94%
    01:00 +13°C° 0 mm 2 mps 740 mmHg 94%
    02:00 +13°C° 0 mm 1 mps 740 mmHg 95%
    03:00 +12°C° 0 mm 1 mps 740 mmHg 95%
    04:00 +12°C° 0 mm 1 mps 741 mmHg 95%
    05:00 +12°C° 0 mm 1 mps 741 mmHg 95%
    06:00 +13°C° 0 mm 1 mps 741 mmHg 91%
    07:00 +15°C° 0 mm 1 mps 741 mmHg 87%
    08:00 +16°C° 0 mm 1 mps 742 mmHg 83%
    09:00 +18°C° 0 mm 2 mps 742 mmHg 78%
    10:00 +19°C° 0 mm 2 mps 742 mmHg 72%
    11:00 +20°C° 0 mm 2 mps 742 mmHg 67%
    12:00 +21°C° 0 mm 2 mps 742 mmHg 65%
    13:00 +22°C° 0 mm 3 mps 742 mmHg 63%
    14:00 +24°C° 0 mm 3 mps 742 mmHg 62%
    15:00 +22°C° 0.9 mm 3 mps 742 mmHg 65%
    16:00 +22°C° 0.9 mm 3 mps 742 mmHg 69%
    17:00 +21°C° 0.9 mm 4 mps 742 mmHg 73%
    18:00 +20°C° 1.2 mm 4 mps 742 mmHg 78%
    19:00 +19°C° 1.2 mm 4 mps 742 mmHg 83%
    20:00 +18°C° 1.2 mm 4 mps 743 mmHg 89%
    21:00 +16°C° 1.9 mm 5 mps 743 mmHg 91%
    22:00 +15°C° 1.9 mm 5 mps 743 mmHg 93%
    23:00 +14°C° 1.9 mm 6 mps 743 mmHg 95%

    Day after tomorrow, 24 May, Friday

    Time Temperature Precipitation Wind Pressure Humidity
    00:00 +14°C° 0.1 mm 5 mps 743 mmHg 95%
    01:00 +13°C° 0.1 mm 5 mps 744 mmHg 95%
    02:00 +12°C° 0.1 mm 5 mps 744 mmHg 96%
    03:00 +12°C° 0 mm 4 mps 744 mmHg 95%
    04:00 +12°C° 0 mm 4 mps 744 mmHg 95%
    05:00 +11°C° 0 mm 4 mps 744 mmHg 94%
    06:00 +12°C° 0 mm 4 mps 744 mmHg 92%
    07:00 +12°C° 0 mm 4 mps 744 mmHg 90%
    08:00 +13°C° 0 mm 4 mps 744 mmHg 87%
    09:00 +14°C° 0 mm 4 mps 744 mmHg 84%
    10:00 +15°C° 0 mm 4 mps 744 mmHg 81%
    11:00 +17°C° 0 mm 3 mps 745 mmHg 78%
    12:00 +17°C° 0 mm 4 mps 744 mmHg 77%
    13:00 +18°C° 0 mm 4 mps 744 mmHg 77%
    14:00 +18°C° 0 mm 4 mps 744 mmHg 76%
    15:00 +18°C° 0 mm 4 mps 744 mmHg 77%
    16:00 +18°C° 0 mm 3 mps 744 mmHg 77%
    17:00 +18°C° 0 mm 3 mps 744 mmHg 77%
    18:00 +18°C° 0 mm 3 mps 743 mmHg 79%
    19:00 +17°C° 0 mm 2 mps 743 mmHg 82%
    20:00 +16°C° 0 mm 2 mps 743 mmHg 84%
    21:00 +15°C° 0 mm 2 mps 743 mmHg 86%
    22:00 +15°C° 0 mm 2 mps 744 mmHg 88%
    23:00 +14°C° 0 mm 2 mps 744 mmHg 89%

    25 May, Saturday

    Time Temperature Precipitation Wind Pressure Humidity
    00:00 +13°C° 0 mm 2 mps 744 mmHg 90%
    01:00 +12°C° 0 mm 2 mps 744 mmHg 90%
    02:00 +12°C° 0 mm 2 mps 744 mmHg 90%
    03:00 +10°C° 0 mm 2 mps 744 mmHg 89%
    04:00 +10°C° 0 mm 2 mps 744 mmHg 87%
    05:00 +9°C° 0 mm 2 mps 744 mmHg 86%
    06:00 +12°C° 0 mm 2 mps 744 mmHg 81%
    07:00 +14°C° 0 mm 2 mps 744 mmHg 77%
    08:00 +16°C° 0 mm 2 mps 744 mmHg 72%
    09:00 +17°C° 0.1 mm 3 mps 744 mmHg 70%
    10:00 +19°C° 0.1 mm 3 mps 744 mmHg 68%
    11:00 +20°C° 0.1 mm 4 mps 744 mmHg 65%
    12:00 +21°C° 0.1 mm 4 mps 743 mmHg 64%
    13:00 +21°C° 0.1 mm 4 mps 743 mmHg 62%
    14:00 +21°C° 0.1 mm 4 mps 743 mmHg 60%
    15:00 +21°C° 0.1 mm 4 mps 743 mmHg 65%
    16:00 +20°C° 0.1 mm 4 mps 743 mmHg 70%
    17:00 +19°C° 0.1 mm 4 mps 742 mmHg 74%
    18:00 +18°C° 0 mm 4 mps 743 mmHg 76%
    19:00 +17°C° 0 mm 3 mps 743 mmHg 78%
    20:00 +16°C° 0 mm 3 mps 743 mmHg 80%
    21:00 +14°C° 0 mm 3 mps 743 mmHg 83%
    22:00 +13°C° 0 mm 3 mps 744 mmHg 87%
    23:00 +11°C° 0 mm 3 mps 744 mmHg 90%

    26 May, Sunday

    Time Temperature Precipitation Wind Pressure Humidity
    00:00 +11°C° 0 mm 3 mps 744 mmHg 91%
    01:00 +10°C° 0 mm 3 mps 744 mmHg 93%
    02:00 +10°C° 0 mm 3 mps 744 mmHg 94%
    03:00 +9°C° 0 mm 3 mps 744 mmHg 94%
    04:00 +9°C° 0 mm 3 mps 744 mmHg 94%
    05:00 +9°C° 0 mm 3 mps 744 mmHg 94%
    06:00 +10°C° 0 mm 4 mps 744 mmHg 87%
    07:00 +10°C° 0 mm 5 mps 744 mmHg 80%
    08:00 +13°C° 0 mm 6 mps 744 mmHg 74%
    09:00 +13°C° 0 mm 6 mps 744 mmHg 72%
    10:00 +14°C° 0 mm 6 mps 743 mmHg 70%
    11:00 +14°C° 0 mm 6 mps 743 mmHg 68%
    12:00 +15°C° 0 mm 7 mps 743 mmHg 67%
    13:00 +15°C° 0 mm 7 mps 743 mmHg 67%
    14:00 +15°C° 0 mm 8 mps 743 mmHg 66%
    15:00 +15°C° 0 mm 7 mps 743 mmHg 66%
    16:00 +15°C° 0 mm 7 mps 743 mmHg 67%
    17:00 +14°C° 0 mm 6 mps 743 mmHg 67%
    18:00 +14°C° 0 mm 5 mps 743 mmHg 71%
    19:00 +13°C° 0 mm 4 mps 743 mmHg 75%
    20:00 +12°C° 0 mm 3 mps 743 mmHg 79%
    21:00 +12°C° 0 mm 3 mps 743 mmHg 78%
    22:00 +12°C° 0 mm 3 mps 743 mmHg 76%
    23:00 +12°C° 0 mm 3 mps 743 mmHg 75%

    27 May, Monday

    Time Temperature Precipitation Wind Pressure Humidity
    00:00 +11°C° 0 mm 3 mps 744 mmHg 77%
    01:00 +10°C° 0 mm 3 mps 744 mmHg 80%
    02:00 +10°C° 0 mm 3 mps 744 mmHg 83%
    03:00 +9°C° 0 mm 3 mps 744 mmHg 87%
    04:00 +8°C° 0 mm 3 mps 744 mmHg 91%
    05:00 +8°C° 0 mm 2 mps 744 mmHg 95%
    06:00 +9°C° 0 mm 3 mps 744 mmHg 90%
    07:00 +11°C° 0 mm 3 mps 744 mmHg 84%
    08:00 +13°C° 0 mm 3 mps 745 mmHg 79%
    09:00 +14°C° 0 mm 3 mps 744 mmHg 77%
    10:00 +15°C° 0 mm 4 mps 744 mmHg 75%
    11:00 +17°C° 0 mm 4 mps 744 mmHg 72%
    12:00 +18°C° 0.1 mm 4 mps 744 mmHg 70%
    13:00 +19°C° 0.1 mm 3 mps 744 mmHg 68%
    14:00 +20°C° 0.1 mm 3 mps 743 mmHg 66%
    15:00 +20°C° 0.1 mm 4 mps 743 mmHg 66%
    16:00 +21°C° 0.1 mm 4 mps 742 mmHg 66%
    17:00 +21°C° 0.1 mm 4 mps 742 mmHg 67%
    18:00 +20°C° 0.3 mm 4 mps 741 mmHg 72%
    19:00 +19°C° 0.3 mm 4 mps 741 mmHg 78%
    20:00 +18°C° 0.3 mm 3 mps 741 mmHg 84%
    21:00 +17°C° 0.4 mm 4 mps 741 mmHg 86%
    22:00 +15°C° 0.4 mm 4 mps 741 mmHg 89%
    23:00 +15°C° 0.4 mm 4 mps 741 mmHg 92%
    Show more